Location: *
(38.9555°S, 57.3572°E)
Time: 01:24:45
(UTC+00:00)

Lacrosse 4 Rocket - Pass Details

Date: 15 July 2020
Orbit: 542 x 616 km, 68.0° (Epoch: 06 August)

Event Time Altitude Azimuth Distance (km) Brightness Sun altitude
Rises 13:41:40 0° 333° (NNW) 2,709 5.7 -6.8°
Reaches altitude 10° 13:43:50 10° 331° (NNW) 1,831 4.8 -7.2°
Maximum altitude 13:47:56 82° 244° (WSW) 576 1.5 -8.0°
Drops below altitude 10° 13:52:11 10° 155° (SSE) 1,893 3.6 -8.7°
Enters shadow 13:53:36 - 154° (SSE) 2,467 4.2 -9.0°
